User: anonymous   Login
Location: Unspecified
(0.0000°N, 0.0000°E)
Time: 00:15:34
(UTC+00:00)
Language:

CERISE - Orbit

View from above orbital plane
View from above orbital plane
View from above satellite
View from above satellite

Ground track
Ground track

The orbit data is extracted from the following two-line orbital elements,

1 23606U 95033B   17326.58221509 +.00000326 +00000-0 +36186-4 0  9997
2 23606 098.2719 275.7747 0005764 139.0885 221.0767 14.94435661210067
Epoch (UTC): 22 November 2017 13:58:23
Eccentricity: 0.0005764
inclination: 98.2719°
perigee height: 580 km
apogee height: 588 km
right ascension of ascending node: 275.7747°
argument of perigee: 139.0885°
revolutions per day: 14.94435661
mean anomaly at epoch: 221.0767°
orbit number at epoch: 21006

The dashed part of the orbit path shows where the satellite is in the earth's shadow,  

DLR